AFR848 FGSL-FKKD

Flight info

Callsign AFR848
Flight time 0h 24m
Altitude 13000
Route MBO ERPIS1L
Aircraft A332/H-SDE3GHIJ2J3J5M1RVWXY/LB2D1

Departure

Time 2026-04-13 19:40
Airport Malabo International Airport (FGSL)

Arrival

Time 2026-04-13 20:05
Airport Douala International Airport (FKKD)
Time Latitude Longitude Altitude Speed Heading
2026-04-13 18:25 3.75287 8.71145 88 ft 0 kts 132°
2026-04-13 19:32 3.75289 8.71143 93 ft 3 kts 132°
2026-04-13 19:32 3.75306 8.71122 91 ft 4 kts 128°
2026-04-13 19:32 3.75322 8.71100 92 ft 4 kts 122°
2026-04-13 19:32 3.75335 8.71077 91 ft 4 kts 108°
2026-04-13 19:33 3.75338 8.71053 89 ft 4 kts 63°
2026-04-13 19:33 3.75335 8.71046 93 ft 0 kts 42°
2026-04-13 19:35 3.75348 8.71058 90 ft 5 kts 41°
2026-04-13 19:35 3.75383 8.71065 93 ft 5 kts 345°
2026-04-13 19:35 3.75417 8.71043 93 ft 7 kts 334°
2026-04-13 19:36 3.75475 8.71055 92 ft 11 kts 36°
2026-04-13 19:36 3.75542 8.71115 92 ft 15 kts 41°
2026-04-13 19:36 3.75631 8.71193 92 ft 18 kts 41°
2026-04-13 19:36 3.75731 8.71283 90 ft 20 kts 41°
2026-04-13 19:37 3.75841 8.71380 92 ft 22 kts 41°
2026-04-13 19:37 3.75959 8.71485 92 ft 24 kts 42°
2026-04-13 19:37 3.76085 8.71598 92 ft 25 kts 41°
2026-04-13 19:37 3.76187 8.71689 92 ft 14 kts 42°
2026-04-13 19:38 3.76233 8.71730 90 ft 7 kts 42°
2026-04-13 19:38 3.76276 8.71768 91 ft 9 kts 42°
2026-04-13 19:38 3.76331 8.71818 92 ft 12 kts 41°
2026-04-13 19:38 3.76403 8.71857 91 ft 12 kts 355°
2026-04-13 19:39 3.76454 8.71798 92 ft 12 kts 279°
2026-04-13 19:39 3.76455 8.71718 94 ft 7 kts 267°
2026-04-13 19:39 3.76439 8.71686 95 ft 6 kts 231°
2026-04-13 19:39 3.76400 8.71649 95 ft 15 kts 222°
2026-04-13 19:40 3.76213 8.71481 94 ft 68 kts 222°
2026-04-13 19:40 3.75693 8.71014 93 ft 130 kts 221°
2026-04-13 19:40 3.74913 8.70324 397 ft 156 kts 222°
2026-04-13 19:40 3.74113 8.69631 1226 ft 147 kts 221°
2026-04-13 19:41 3.73358 8.68974 1892 ft 146 kts 219°
2026-04-13 19:41 3.72546 8.68290 2241 ft 156 kts 218°
2026-04-13 19:41 3.71776 8.67486 2574 ft 167 kts 244°
2026-04-13 19:42 3.72562 8.65336 3298 ft 191 kts 330°
2026-04-13 19:42 3.73868 8.64966 3719 ft 202 kts 353°
2026-04-13 19:42 3.75302 8.64953 4215 ft 211 kts
2026-04-13 19:42 3.76734 8.65371 4686 ft 221 kts 29°
2026-04-13 19:43 3.78042 8.66250 5158 ft 232 kts 38°
2026-04-13 19:43 3.79378 8.67228 5669 ft 243 kts 39°
2026-04-13 19:43 3.80643 8.68387 6190 ft 251 kts 54°
2026-04-13 19:43 3.81456 8.69941 6729 ft 256 kts 74°
2026-04-13 19:44 3.81916 8.71697 7112 ft 267 kts 81°
2026-04-13 19:44 3.81914 8.73563 7391 ft 272 kts 99°
2026-04-13 19:44 3.81451 8.75388 8152 ft 270 kts 105°
2026-04-13 19:44 3.80891 8.77173 9017 ft 267 kts 106°
2026-04-13 19:45 3.80314 8.78936 9813 ft 266 kts 107°
2026-04-13 19:45 3.79724 8.80720 10293 ft 277 kts 107°
2026-04-13 19:45 3.79097 8.82612 10552 ft 295 kts 107°
2026-04-13 19:45 3.78429 8.84618 10808 ft 311 kts 107°
2026-04-13 19:46 3.77734 8.86703 11189 ft 320 kts 107°
2026-04-13 19:46 3.77025 8.88828 11704 ft 324 kts 107°
2026-04-13 19:46 3.76305 8.90983 12253 ft 329 kts 107°
2026-04-13 19:46 3.75575 8.93168 12700 ft 332 kts 107°
2026-04-13 19:47 3.74840 8.95368 12860 ft 336 kts 107°
2026-04-13 19:47 3.74093 8.97605 12877 ft 340 kts 107°
2026-04-13 19:47 3.73343 8.99852 12883 ft 341 kts 107°
2026-04-13 19:47 3.72591 9.02102 12886 ft 341 kts 107°
2026-04-13 19:48 3.71841 9.04349 12891 ft 341 kts 107°
2026-04-13 19:48 3.71089 9.06598 12898 ft 341 kts 107°
2026-04-13 19:48 3.70338 9.08847 12890 ft 341 kts 107°
2026-04-13 19:48 3.69592 9.11097 12882 ft 340 kts 106°
2026-04-13 19:49 3.69142 9.13414 12877 ft 339 kts 92°
2026-04-13 19:49 3.69317 9.15759 12866 ft 338 kts 82°
2026-04-13 19:49 3.69715 9.18059 12691 ft 330 kts 80°
2026-04-13 19:49 3.70134 9.20266 12540 ft 316 kts 80°
2026-04-13 19:50 3.70522 9.22314 12361 ft 306 kts 80°
2026-04-13 19:50 3.70906 9.24369 11963 ft 306 kts 80°
2026-04-13 19:50 3.71286 9.26430 11559 ft 306 kts 80°
2026-04-13 19:50 3.71669 9.28518 11170 ft 304 kts 80°
2026-04-13 19:51 3.72048 9.30594 10780 ft 302 kts 80°
2026-04-13 19:51 3.72424 9.32656 10391 ft 300 kts 80°
2026-04-13 19:51 3.72792 9.34678 10200 ft 288 kts 80°
2026-04-13 19:51 3.73142 9.36601 10122 ft 274 kts 81°
2026-04-13 19:52 3.73476 9.38437 10011 ft 263 kts 81°
2026-04-13 19:52 3.73798 9.40211 9865 ft 255 kts 81°
2026-04-13 19:52 3.74111 9.41934 9676 ft 250 kts 81°
2026-04-13 19:52 3.74420 9.43642 9350 ft 249 kts 81°
2026-04-13 19:53 3.74730 9.45352 9066 ft 249 kts 81°
2026-04-13 19:53 3.75040 9.47060 8793 ft 250 kts 80°
2026-04-13 19:53 3.75351 9.48774 8510 ft 251 kts 80°
2026-04-13 19:53 3.75662 9.50489 8227 ft 251 kts 80°
2026-04-13 19:54 3.75974 9.52206 7958 ft 251 kts 80°
2026-04-13 19:54 3.76286 9.53923 7656 ft 251 kts 80°
2026-04-13 19:54 3.76598 9.55644 7372 ft 251 kts 80°
2026-04-13 19:54 3.76911 9.57365 7083 ft 251 kts 80°
2026-04-13 19:55 3.77118 9.58506 6901 ft 252 kts 80°
2026-04-13 19:55 3.77435 9.60253 6677 ft 263 kts 80°
2026-04-13 19:55 3.77768 9.62091 6474 ft 272 kts 80°
2026-04-13 19:55 3.78107 9.63956 6252 ft 273 kts 80°
2026-04-13 19:56 3.78446 9.65823 6019 ft 272 kts 80°
2026-04-13 19:56 3.78785 9.67689 5800 ft 272 kts 81°
2026-04-13 19:56 3.79122 9.69550 5588 ft 272 kts 81°
2026-04-13 19:56 3.79460 9.71409 5369 ft 271 kts 81°
2026-04-13 19:57 3.79796 9.73266 5139 ft 271 kts 81°
2026-04-13 19:57 3.80131 9.75122 4925 ft 271 kts 81°
2026-04-13 19:57 3.80465 9.76977 4713 ft 271 kts 81°
2026-04-13 19:57 3.80801 9.78831 4486 ft 270 kts 81°
2026-04-13 19:58 3.81136 9.80677 4278 ft 268 kts 81°
2026-04-13 19:58 3.81463 9.82476 4110 ft 258 kts 81°
2026-04-13 19:58 3.81785 9.84217 3915 ft 251 kts 79°
2026-04-13 19:58 3.82403 9.85830 3672 ft 249 kts 56°
2026-04-13 19:59 3.83632 9.87026 3461 ft 245 kts 37°
2026-04-13 19:59 3.85056 9.87935 3272 ft 241 kts 29°
2026-04-13 19:59 3.86515 9.88671 3112 ft 235 kts 25°
2026-04-13 19:59 3.87984 9.89307 3012 ft 226 kts 17°
2026-04-13 20:00 3.89488 9.89541 2960 ft 214 kts 359°
2026-04-13 20:00 3.90898 9.89257 2858 ft 202 kts 334°
2026-04-13 20:00 3.92011 9.88473 2741 ft 191 kts 314°
2026-04-13 20:00 3.92782 9.87437 2643 ft 181 kts 297°
2026-04-13 20:01 3.93332 9.86354 2561 ft 169 kts 294°
2026-04-13 20:01 3.93843 9.85330 2446 ft 160 kts 294°
2026-04-13 20:01 3.94338 9.84350 2280 ft 156 kts 294°
2026-04-13 20:01 3.94826 9.83389 2100 ft 152 kts 294°
2026-04-13 20:02 3.95289 9.82479 1968 ft 142 kts 294°
2026-04-13 20:02 3.95730 9.81608 1791 ft 139 kts 294°
2026-04-13 20:02 3.96163 9.80748 1631 ft 138 kts 294°
2026-04-13 20:02 3.96600 9.79890 1452 ft 139 kts 294°
2026-04-13 20:03 3.97045 9.79044 1229 ft 137 kts 295°
2026-04-13 20:03 3.97477 9.78193 1033 ft 137 kts 293°
2026-04-13 20:03 3.97898 9.77337 873 ft 137 kts 294°
2026-04-13 20:03 3.98323 9.76484 720 ft 137 kts 295°
2026-04-13 20:04 3.98753 9.75636 564 ft 136 kts 296°
2026-04-13 20:04 3.99170 9.74785 383 ft 136 kts 297°
2026-04-13 20:04 3.99590 9.73958 212 ft 135 kts 298°
2026-04-13 20:04 4.00010 9.73139 60 ft 133 kts 297°
2026-04-13 20:05 4.00400 9.72373 38 ft 101 kts 297°
2026-04-13 20:05 4.00628 9.71923 44 ft 50 kts 297°
2026-04-13 20:05 4.00768 9.71644 46 ft 44 kts 297°
2026-04-13 20:05 4.00882 9.71417 46 ft 16 kts 296°
2026-04-13 20:06 4.00906 9.71370 46 ft 7 kts 297°
2026-04-13 20:06 4.00943 9.71331 47 ft 8 kts 334°
2026-04-13 20:06 4.00997 9.71340 47 ft 9 kts 24°
2026-04-13 20:06 4.01047 9.71379 47 ft 10 kts 54°
2026-04-13 20:07 4.01053 9.71447 47 ft 11 kts 116°
2026-04-13 20:07 4.01022 9.71492 47 ft 6 kts 123°
2026-04-13 20:07 4.01009 9.71531 47 ft 5 kts 86°
2026-04-13 20:07 4.01034 9.71566 45 ft 7 kts 38°
2026-04-13 20:08 4.01081 9.71593 46 ft 6 kts 28°
2026-04-13 20:08 4.01126 9.71617 46 ft 9 kts 28°
2026-04-13 20:08 4.01135 9.71640 46 ft 3 kts 88°
2026-04-13 20:08 4.01132 9.71663 46 ft 3 kts 105°
2026-04-13 20:09 4.01130 9.71667 46 ft 0 kts 110°
2026-04-13 20:09 4.01131 9.71668 46 ft 0 kts 117°